Regional Weather Roundup
Issued by NWS State College, PA

Home | Current Version | Previous Version | Graphics & Text | Print | Product List | Glossary On
Versions: 1 2 3 4 5 6 7 8 9 10 11 12 13 14 15 16 17 18 19 20 21 22 23 24 25 26 27 28 29 30 31 32 33 34 35 36 37 38 39 40 41 42 43 44 45 46 47 48 49 50
000
ASUS41 KCTP 011303
RWRCTP

REGIONAL WEATHER ROUNDUP
NATIONAL WEATHER SERVICE STATE COLLEGE PA
900 AM EDT TUE SEP 01 2015

Note: "fair" indicates few or no clouds below 12,000 feet with no
significant weather and/or obstructions to visibility.

* = STATION THAT DOES NOT REPORT PRECIPITATION /E.G. RAIN...SNOW...ETC/
    THUNDER OR FOG.

PAZ002>004-007>009-013>016-020>023-029>032-011400-
WESTERN PENNSYLVANIA

CITY           SKY/WX    TMP DP  RH WIND       PRES   REMARKS
ERIE           SUNNY     71  64  78 S7        30.11S
MEADVILLE      SUNNY     71  66  84 SW3       30.15S HAZE
FRANKLIN*      SUNNY     70  66  88 SW3       30.17S
NEW CASTLE     FOG       68  68 100 CALM      30.16R VSB 3/4
BEAVER COUNTY  SUNNY     72  68  88 CALM      30.15R FOG
BUTLER*        SUNNY     70  68  94 CALM      30.17S
PITTSBURGH INT MOSUNNY   73  67  81 CALM      30.15R
PITTSBURGH     SUNNY     71  63  75 SE3       30.15R HAZE
INDIANA*       MOSUNNY   72  66  83 SW6       30.19S
LATROBE        SUNNY     72  68  88 SW7       30.17R
WASHINGTON CO* SUNNY     70  66  88 CALM      30.16S
$$

PAZ004>006-010>012-017>019-024>028-033>037-041-042-045-046-049>053-011400-
CENTRAL PENNSYLVANIA

CITY           SKY/WX    TMP DP  RH WIND       PRES   REMARKS
BRADFORD       MOSUNNY   60  59  96 CALM      30.17R FOG
DUBOIS         FOG       68  66  93 SW3       30.16S VSB 1
CLEARFIELD     FOG       64  64 100 CALM      30.16S VSB<1/4
JOHNSTOWN      SUNNY     69  63  81 W5        30.19R
ALTOONA        SUNNY     71  66  84 CALM      30.16R HAZE
STATE COLLEGE  SUNNY     70  66  88 CALM      30.14R
WILLIAMSPORT   CLOUDY    69  65  86 W6        30.09S FOG
SELINSGROVE    FOG       69  68  96 CALM      30.10S VSB<1/4
FT INDIANTOWN  SUNNY     73  67  84 CALM      30.08S
CAPITAL CITY   MOSUNNY   75  66  73 NW3       30.09R
HARRISBURG     MOSUNNY   75  67  76 NW7       30.08R
YORK           SUNNY     74  69  85 CALM      30.10R
$$

PAZ038>040-043-044-047-048-054-055-060>062-067>071-011400-
EASTERN PENNSYLVANIA

CITY           SKY/WX    TMP DP  RH WIND       PRES   REMARKS
SCRANTON       MOSUNNY   71  64  78 W3        30.11R HAZE
MOUNT POCONO   MOSUNNY   70  65  84 NW5       30.13S
ALLENTOWN      SUNNY     74  67  78 CALM      30.08R
QUAKERTOWN*    SUNNY     75  68  78 N3        30.09R
READING        SUNNY     75  67  76 CALM      30.07S
LANCASTER      SUNNY     75  68  78 W3        30.08S
COATESVILLE    SUNNY     77  70  78 N6        30.09S
POTTSTOWN      SUNNY     76  70  82 CALM      30.08S
BLUE BELL      SUNNY     79  70  73 CALM      30.06S
DOYLESTOWN     SUNNY     76  69  79 N5        30.07R
WILLOW GROVE   NOT AVBL
NORTH PHILA    SUNNY     81  66  60 N7        30.07R
PHILADELPHIA   SUNNY     81  68  64 VRB7      30.05S
$$


USA.gov is the U.S. government's official web portal to all federal, state and local government web resources and services.